| time (UTC) | temp C | wind direction | speed KPH | gust KPH | rain 1hr cm | rain 24hr cm | rain mn cm | humidity % | barometer mb |
| 20260507114003 | 18 | 96 | 4.8 | 16.1 | 0.00 | 0.00 | 0.00 | 67 | 1012.9 |
| 20260507113502 | 17 | 306 | 8.0 | 12.9 | 0.00 | 0.00 | 0.00 | 64 | 1013.1 |
| 20260507113004 | 17 | 49 | 6.4 | 19.3 | 0.00 | 0.00 | 0.00 | 64 | 1013.1 |
| 20260507112508 | 17 | 122 | 6.4 | 19.3 | 0.00 | 0.00 | 0.00 | 64 | 1013.2 |
| 20260507112004 | 17 | 61 | 3.2 | 16.1 | 0.00 | 0.00 | 0.00 | 61 | 1013.2 |
| 20260507111510 | 17 | 67 | 6.4 | 17.7 | 0.00 | 0.00 | 0.00 | 60 | 1013.3 |
| 20260507111003 | 17 | 90 | 4.8 | 17.7 | 0.00 | 0.00 | 0.00 | 63 | 1013.3 |
| 20260507110505 | 17 | 39 | 6.4 | 16.1 | 0.00 | 0.00 | 0.00 | 63 | 1013.4 |
| 20260507110016 | 17 | 106 | 8.0 | 16.1 | 0.00 | 0.00 | 0.00 | 60 | 1013.4 |
| 20260507105507 | 17 | 70 | 4.8 | 14.5 | 0.00 | 0.00 | 0.00 | 60 | 1013.4 |
| 20260507105007 | 17 | 59 | 9.7 | 16.1 | 0.00 | 0.00 | 0.00 | 64 | 1013.4 |
| 20260507104504 | 17 | 43 | 6.4 | 16.1 | 0.00 | 0.00 | 0.00 | 64 | 1013.4 |
| 20260507104004 | 17 | 75 | 6.4 | 17.7 | 0.00 | 0.00 | 0.00 | 62 | 1013.5 |
| 20260507103508 | 17 | 75 | 8.0 | 22.5 | 0.00 | 0.00 | 0.00 | 62 | 1013.5 |
| 20260507103003 | 17 | 83 | 4.8 | 22.5 | 0.00 | 0.00 | 0.00 | 62 | 1013.6 |
| 20260507102505 | 17 | 40 | 12.9 | 22.5 | 0.00 | 0.00 | 0.00 | 65 | 1013.6 |
| 20260507102006 | 16 | 81 | 8.0 | 19.3 | 0.00 | 0.00 | 0.00 | 62 | 1013.6 |
| 20260507101508 | 16 | 117 | 4.8 | 20.9 | 0.00 | 0.00 | 0.00 | 62 | 1013.7 |
| 20260507101004 | 16 | 79 | 11.3 | 20.9 | 0.00 | 0.00 | 0.00 | 65 | 1013.7 |
| 20260507100503 | 16 | 38 | 8.0 | 16.1 | 0.00 | 0.00 | 0.00 | 67 | 1013.7 |
| 20260507100030 | 16 | 90 | 6.4 | 14.5 | 0.00 | 0.00 | 0.00 | 64 | 1013.7 |
| 20260507095504 | 16 | 81 | 4.8 | 19.3 | 0.00 | 0.00 | 0.00 | 65 | 1013.7 |
| 20260507095003 | 16 | 85 | 4.8 | 19.3 | 0.00 | 0.00 | 0.00 | 67 | 1013.9 |
| 20260507094521 | 16 | 108 | 3.2 | 16.1 | 0.00 | 0.00 | 0.00 | 67 | 1013.8 |
| 20260507094007 | 16 | 64 | 4.8 | 17.7 | 0.00 | 0.00 | 0.00 | 67 | 1013.9 |
| 20260507093504 | 16 | 119 | 6.4 | 17.7 | 0.00 | 0.00 | 0.00 | 66 | 1013.9 |
| 20260507093027 | 16 | 123 | 6.4 | 17.7 | 0.00 | 0.00 | 0.00 | 67 | 1013.9 |
| 20260507092507 | 15 | 75 | 3.2 | 17.7 | 0.00 | 0.00 | 0.00 | 70 | 1014.0 |
| 20260507092007 | 15 | 109 | 6.4 | 17.7 | 0.00 | 0.00 | 0.00 | 72 | 1014.0 |
| 20260507091508 | 15 | 69 | 8.0 | 17.7 | 0.00 | 0.00 | 0.00 | 72 | 1013.9 |
| 20260507091008 | 15 | 102 | 11.3 | 22.5 | 0.00 | 0.00 | 0.00 | 70 | 1013.9 |
| 20260507090505 | 15 | 126 | 9.7 | 22.5 | 0.00 | 0.00 | 0.00 | 73 | 1013.9 |
| 20260507090007 | 15 | 69 | 11.3 | 20.9 | 0.00 | 0.00 | 0.00 | 73 | 1013.9 |
| 20260507085504 | 15 | 108 | 8.0 | 16.1 | 0.00 | 0.00 | 0.00 | 70 | 1014.0 |
| 20260507085009 | 15 | 117 | 4.8 | 17.7 | 0.00 | 0.00 | 0.00 | 72 | 1013.9 |
| 20260507084513 | 15 | 82 | 6.4 | 17.7 | 0.00 | 0.00 | 0.00 | 71 | 1013.9 |
| 20260507084004 | 15 | 112 | 4.8 | 17.7 | 0.00 | 0.00 | 0.00 | 72 | 1013.9 |
| 20260507083507 | 14 | 81 | 9.7 | 17.7 | 0.00 | 0.00 | 0.00 | 73 | 1013.9 |
| 20260507083033 | 14 | 140 | 6.4 | 14.5 | 0.00 | 0.00 | 0.00 | 70 | 1014.0 |
| 20260507082506 | 15 | 134 | 4.8 | 14.5 | 0.00 | 0.00 | 0.00 | 72 | 1014.1 |
| 20260507082007 | 15 | 90 | 8.0 | 14.5 | 0.00 | 0.00 | 0.00 | 70 | 1014.2 |
| 20260507081528 | 14 | 115 | 1.6 | 12.9 | 0.00 | 0.00 | 0.00 | 74 | 1014.1 |
| 20260507081007 | 14 | 111 | 3.2 | 12.9 | 0.00 | 0.00 | 0.00 | 72 | 1014.1 |
| 20260507080504 | 13 | 89 | 6.4 | 16.1 | 0.00 | 0.00 | 0.00 | 73 | 1014.2 |
| 20260507080017 | 13 | 93 | 4.8 | 16.1 | 0.00 | 0.00 | 0.00 | 72 | 1014.2 |
| 20260507075506 | 13 | 75 | 1.6 | 14.5 | 0.00 | 0.00 | 0.00 | 73 | 1014.2 |
| 20260507075011 | 13 | 116 | 6.4 | 14.5 | 0.00 | 0.00 | 0.00 | 73 | 1014.2 |
| 20260507074525 | 13 | 92 | 4.8 | 14.5 | 0.00 | 0.00 | 0.00 | 74 | 1014.2 |
| 20260507074007 | 13 | 106 | 3.2 | 11.3 | 0.00 | 0.00 | 0.00 | 75 | 1014.2 |
| 20260507073506 | 13 | 75 | 4.8 | 11.3 | 0.00 | 0.00 | 0.00 | 78 | 1014.2 |
| 20260507073008 | 12 | 89 | 1.6 | 9.7 | 0.00 | 0.00 | 0.00 | 80 | 1014.2 |
| 20260507072509 | 12 | 99 | 4.8 | 9.7 | 0.00 | 0.00 | 0.00 | 82 | 1014.2 |
| 20260507072006 | 11 | 201 | 0.0 | 0.0 | 0.00 | 0.00 | 0.00 | 85 | 1014.2 |
| 20260507071523 | 11 | 201 | 0.0 | 0.0 | 0.00 | 0.00 | 0.00 | 85 | 1014.2 |
| 20260507071008 | 11 | 201 | 0.0 | 0.0 | 0.00 | 0.00 | 0.00 | 85 | 1014.2 |
| 20260507070507 | 10 | 201 | 0.0 | 0.0 | 0.00 | 0.00 | 0.00 | 85 | 1014.3 |
| 20260507070026 | 10 | 201 | 0.0 | 0.0 | 0.00 | 0.00 | 0.00 | 85 | 1014.2 |
| 20260507065512 | 10 | 201 | 0.0 | 0.0 | 0.00 | 0.00 | 0.00 | 86 | 1014.2 |
| 20260507065008 | 10 | 201 | 0.0 | 0.0 | 0.00 | 0.00 | 0.00 | 86 | 1014.2 |
| 20260507064525 | 10 | 201 | 0.0 | 0.0 | 0.00 | 0.00 | 0.00 | 86 | 1014.2 |
| 20260507064007 | 10 | 201 | 0.0 | 0.0 | 0.00 | 0.00 | 0.00 | 87 | 1014.2 |
| 20260507063504 | 9 | 201 | 0.0 | 0.0 | 0.00 | 0.00 | 0.00 | 88 | 1014.3 |
| 20260507063015 | 8 | 201 | 0.0 | 0.0 | 0.00 | 0.00 | 0.00 | 89 | 1014.2 |
| 20260507062505 | 8 | 201 | 0.0 | 0.0 | 0.00 | 0.00 | 0.00 | 89 | 1014.3 |
| 20260507062008 | 8 | 201 | 0.0 | 0.0 | 0.00 | 0.00 | 0.00 | 89 | 1014.3 |
| 20260507061518 | 8 | 201 | 0.0 | 0.0 | 0.00 | 0.00 | 0.00 | 91 | 1014.3 |
| 20260507061010 | 7 | 201 | 0.0 | 0.0 | 0.00 | 0.00 | 0.00 | 91 | 1014.3 |
| 20260507060504 | 7 | 201 | 0.0 | 4.8 | 0.00 | 0.00 | 0.00 | 92 | 1014.3 |
| 20260507060004 | 7 | 201 | 0.0 | 4.8 | 0.00 | 0.00 | 0.00 | 93 | 1014.3 |
| 20260507055503 | 7 | 252 | 0.0 | 1.6 | 0.00 | 0.00 | 0.00 | 94 | 1014.3 |
| 20260507055002 | 7 | 252 | 0.0 | 1.6 | 0.00 | 0.00 | 0.00 | 95 | 1014.3 |
| 20260507054507 | 6 | 252 | 0.0 | 1.6 | 0.00 | 0.00 | 0.00 | 96 | 1014.2 |
| 20260507054004 | 6 | 255 | 0.0 | 1.6 | 0.00 | 0.00 | 0.00 | 96 | 1014.2 |
| 20260507053503 | 6 | 255 | 0.0 | 1.6 | 0.00 | 0.00 | 0.00 | 96 | 1014.1 |
| 20260507053008 | 6 | 256 | 0.0 | 1.6 | 0.00 | 0.00 | 0.00 | 95 | 1014.1 |
| 20260507052506 | 6 | 273 | 0.0 | 1.6 | 0.00 | 0.00 | 0.00 | 95 | 1014.0 |
| 20260507052003 | 6 | 273 | 0.0 | 1.6 | 0.00 | 0.00 | 0.00 | 95 | 1014.0 |
| 20260507051504 | 6 | 273 | 0.0 | 1.6 | 0.00 | 0.00 | 0.00 | 95 | 1014.0 |
| 20260507051010 | 6 | 273 | 0.0 | 1.6 | 0.00 | 0.00 | 0.00 | 95 | 1013.9 |
| 20260507050504 | 6 | 273 | 0.0 | 1.6 | 0.00 | 0.00 | 0.00 | 96 | 1013.9 |
| 20260507050004 | 6 | 273 | 0.0 | 0.0 | 0.00 | 0.00 | 0.00 | 96 | 1013.8 |
| 20260507045503 | 6 | 273 | 0.0 | 0.0 | 0.00 | 0.00 | 0.00 | 95 | 1013.8 |
| 20260507045004 | 6 | 274 | 0.0 | 0.0 | 0.00 | 0.00 | 0.00 | 95 | 1013.8 |
| 20260507044505 | 6 | 274 | 0.0 | 1.6 | 0.00 | 0.00 | 0.00 | 95 | 1013.8 |
| 20260507044009 | 6 | 274 | 0.0 | 1.6 | 0.00 | 0.00 | 0.00 | 95 | 1013.7 |
| 20260507043503 | 6 | 273 | 0.0 | 1.6 | 0.00 | 0.00 | 0.00 | 95 | 1013.8 |
| 20260507043008 | 6 | 273 | 0.0 | 0.0 | 0.00 | 0.00 | 0.00 | 95 | 1013.7 |
| 20260507042503 | 6 | 274 | 0.0 | 0.0 | 0.00 | 0.00 | 0.00 | 95 | 1013.8 |
| 20260507042004 | 6 | 273 | 0.0 | 0.0 | 0.00 | 0.00 | 0.00 | 95 | 1013.8 |
| 20260507041528 | 6 | 273 | 0.0 | 1.6 | 0.00 | 0.00 | 0.00 | 95 | 1013.8 |
| 20260507041007 | 6 | 274 | 0.0 | 1.6 | 0.00 | 0.00 | 0.00 | 95 | 1013.8 |
| 20260507040504 | 6 | 274 | 0.0 | 1.6 | 0.00 | 0.00 | 0.00 | 95 | 1013.9 |
| 20260507040013 | 6 | 273 | 0.0 | 1.6 | 0.00 | 0.00 | 0.00 | 95 | 1013.9 |
| 20260507035507 | 6 | 274 | 0.0 | 1.6 | 0.00 | 0.00 | 0.00 | 95 | 1013.8 |
| 20260507035003 | 6 | 273 | 0.0 | 0.0 | 0.00 | 0.00 | 0.00 | 95 | 1013.9 |
| 20260507034506 | 6 | 273 | 0.0 | 0.0 | 0.00 | 0.00 | 0.00 | 95 | 1013.8 |
| 20260507034003 | 6 | 273 | 0.0 | 3.2 | 0.00 | 0.00 | 0.00 | 95 | 1013.8 |
| 20260507033502 | 6 | 273 | 0.0 | 3.2 | 0.00 | 0.00 | 0.00 | 95 | 1013.8 |
| 20260507033006 | 6 | 277 | 0.0 | 1.6 | 0.00 | 0.00 | 0.00 | 95 | 1013.8 |
| 20260507032504 | 6 | 277 | 0.0 | 1.6 | 0.00 | 0.00 | 0.00 | 95 | 1013.9 |
| 20260507032005 | 6 | 277 | 0.0 | 1.6 | 0.00 | 0.00 | 0.00 | 95 | 1013.8 |
| 20260507031512 | 6 | 277 | 0.0 | 3.2 | 0.00 | 0.00 | 0.00 | 95 | 1013.8 |
| 20260507031005 | 6 | 277 | 0.0 | 3.2 | 0.00 | 0.00 | 0.00 | 94 | 1013.9 |
| 20260507030505 | 7 | 277 | 0.0 | 3.2 | 0.00 | 0.00 | 0.00 | 94 | 1013.9 |
| 20260507030018 | 7 | 277 | 0.0 | 3.2 | 0.00 | 0.00 | 0.00 | 95 | 1013.9 |
| 20260507025502 | 7 | 277 | 0.0 | 3.2 | 0.00 | 0.00 | 0.00 | 95 | 1013.9 |
| 20260507025006 | 7 | 277 | 0.0 | 3.2 | 0.00 | 0.00 | 0.00 | 95 | 1013.8 |
| 20260507024520 | 7 | 277 | 0.0 | 1.6 | 0.00 | 0.00 | 0.00 | 95 | 1013.9 |
| 20260507024008 | 7 | 277 | 0.0 | 1.6 | 0.00 | 0.00 | 0.00 | 94 | 1013.9 |
| 20260507023502 | 7 | 277 | 0.0 | 1.6 | 0.00 | 0.00 | 0.00 | 94 | 1014.0 |
| 20260507023004 | 7 | 277 | 0.0 | 1.6 | 0.00 | 0.00 | 0.00 | 94 | 1014.0 |
| 20260507022502 | 7 | 277 | 0.0 | 0.0 | 0.00 | 0.00 | 0.00 | 94 | 1014.0 |
| 20260507022002 | 7 | 277 | 0.0 | 0.0 | 0.00 | 0.00 | 0.00 | 94 | 1014.1 |
| 20260507021511 | 7 | 277 | 0.0 | 1.6 | 0.00 | 0.00 | 0.00 | 94 | 1014.1 |
| 20260507021007 | 7 | 277 | 0.0 | 3.2 | 0.00 | 0.00 | 0.00 | 94 | 1014.1 |
| 20260507020506 | 7 | 277 | 0.0 | 4.8 | 0.00 | 0.00 | 0.00 | 94 | 1014.1 |
| 20260507020007 | 7 | 277 | 0.0 | 4.8 | 0.00 | 0.00 | 0.00 | 95 | 1014.1 |
| 20260507015508 | 7 | 279 | 1.6 | 4.8 | 0.00 | 0.00 | 0.00 | 95 | 1014.2 |
| 20260507015006 | 7 | 280 | 0.0 | 1.6 | 0.00 | 0.00 | 0.00 | 94 | 1014.1 |
| 20260507014520 | 7 | 280 | 0.0 | 1.6 | 0.00 | 0.00 | 0.00 | 94 | 1014.1 |
| 20260507014002 | 7 | 280 | 0.0 | 0.0 | 0.00 | 0.00 | 0.00 | 94 | 1014.2 |
| 20260507013506 | 7 | 280 | 0.0 | 1.6 | 0.00 | 0.00 | 0.00 | 94 | 1014.3 |
| 20260507013032 | 7 | 280 | 0.0 | 1.6 | 0.00 | 0.00 | 0.00 | 95 | 1014.3 |
| 20260507012503 | 7 | 280 | 0.0 | 1.6 | 0.00 | 0.00 | 0.00 | 94 | 1014.3 |
| 20260507012007 | 7 | 280 | 0.0 | 0.0 | 0.00 | 0.00 | 0.00 | 94 | 1014.3 |
| 20260507011535 | 7 | 280 | 0.0 | 1.6 | 0.00 | 0.00 | 0.00 | 94 | 1014.4 |
| 20260507011005 | 7 | 280 | 0.0 | 1.6 | 0.00 | 0.00 | 0.00 | 94 | 1014.4 |
| 20260507010505 | 7 | 280 | 0.0 | 3.2 | 0.00 | 0.00 | 0.00 | 94 | 1014.5 |
| 20260507010010 | 7 | 281 | 0.0 | 3.2 | 0.00 | 0.00 | 0.00 | 94 | 1014.5 |
| 20260507005507 | 7 | 285 | 0.0 | 3.2 | 0.00 | 0.00 | 0.00 | 94 | 1014.6 |
| 20260507005006 | 7 | 294 | 0.0 | 1.6 | 0.00 | 0.00 | 0.00 | 94 | 1014.7 |
| 20260507004518 | 7 | 294 | 0.0 | 1.6 | 0.00 | 0.00 | 0.00 | 94 | 1014.8 |
| 20260507004006 | 7 | 294 | 0.0 | 1.6 | 0.00 | 0.00 | 0.00 | 94 | 1014.8 |
| 20260507003507 | 7 | 294 | 0.0 | 3.2 | 0.00 | 0.00 | 0.00 | 94 | 1014.9 |
| 20260507003018 | 7 | 294 | 0.0 | 3.2 | 0.00 | 0.00 | 0.00 | 94 | 1014.9 |
| 20260507002507 | 7 | 296 | 0.0 | 1.6 | 0.00 | 0.00 | 0.00 | 94 | 1014.9 |
| 20260507002009 | 7 | 296 | 0.0 | 0.0 | 0.00 | 0.00 | 0.00 | 93 | 1015.0 |
| 20260507001529 | 7 | 296 | 0.0 | 1.6 | 0.00 | 0.00 | 0.00 | 93 | 1015.0 |
| 20260507001008 | 7 | 296 | 0.0 | 1.6 | 0.00 | 0.00 | 0.00 | 93 | 1015.1 |
| 20260507000514 | 7 | 296 | 0.0 | 1.6 | 0.00 | 0.00 | 0.00 | 93 | 1015.1 |
| 20260507000026 | 8 | 296 | 0.0 | 1.6 | 0.00 | 0.00 | 0.00 | 93 | 1015.1 |
| 20260506235504 | 8 | 296 | 0.0 | 1.6 | 0.00 | 0.00 | 0.00 | 94 | 1015.1 |
| 20260506235006 | 8 | 296 | 0.0 | 1.6 | 0.00 | 0.00 | 0.00 | 94 | 1015.1 |
| 20260506234513 | 8 | 296 | 0.0 | 1.6 | 0.00 | 0.00 | 0.00 | 94 | 1015.1 |
| 20260506234006 | 8 | 296 | 0.0 | 1.6 | 0.00 | 0.00 | 0.00 | 94 | 1015.1 |
| 20260506233507 | 8 | 296 | 0.0 | 3.2 | 0.00 | 0.00 | 0.00 | 94 | 1015.1 |
| 20260506233020 | 8 | 296 | 0.0 | 3.2 | 0.00 | 0.00 | 0.00 | 93 | 1015.2 |
| 20260506232507 | 8 | 298 | 0.0 | 3.2 | 0.00 | 0.00 | 0.00 | 93 | 1015.2 |
| 20260506232011 | 8 | 299 | 0.0 | 0.0 | 0.00 | 0.00 | 0.00 | 92 | 1015.2 |
| 20260506231519 | 8 | 299 | 0.0 | 0.0 | 0.00 | 0.00 | 0.00 | 92 | 1015.2 |
| 20260506231009 | 8 | 299 | 0.0 | 0.0 | 0.00 | 0.00 | 0.00 | 92 | 1015.2 |
| 20260506230506 | 8 | 299 | 0.0 | 1.6 | 0.00 | 0.00 | 0.00 | 92 | 1015.2 |
| 20260506230026 | 8 | 299 | 0.0 | 1.6 | 0.00 | 0.00 | 0.00 | 92 | 1015.2 |
| 20260506225507 | 8 | 298 | 0.0 | 0.0 | 0.00 | 0.00 | 0.00 | 92 | 1015.3 |
| 20260506225010 | 8 | 298 | 0.0 | 0.0 | 0.00 | 0.00 | 0.00 | 93 | 1015.3 |
| 20260506224530 | 8 | 298 | 0.0 | 0.0 | 0.00 | 0.00 | 0.00 | 93 | 1015.3 |
| 20260506224009 | 8 | 298 | 0.0 | 0.0 | 0.00 | 0.00 | 0.00 | 93 | 1015.3 |
| 20260506223503 | 8 | 298 | 0.0 | 0.0 | 0.00 | 0.00 | 0.00 | 92 | 1015.3 |
| 20260506223016 | 8 | 298 | 0.0 | 0.0 | 0.00 | 0.00 | 0.00 | 92 | 1015.3 |
| 20260506222504 | 9 | 298 | 0.0 | 1.6 | 0.00 | 0.00 | 0.00 | 92 | 1015.2 |
| 20260506222007 | 9 | 298 | 0.0 | 1.6 | 0.00 | 0.00 | 0.00 | 92 | 1015.3 |
| 20260506221522 | 9 | 298 | 0.0 | 0.0 | 0.00 | 0.00 | 0.00 | 92 | 1015.3 |
| 20260506221008 | 9 | 299 | 0.0 | 1.6 | 0.00 | 0.00 | 0.00 | 93 | 1015.3 |
| 20260506220506 | 9 | 299 | 0.0 | 1.6 | 0.00 | 0.00 | 0.00 | 93 | 1015.4 |
| 20260506220022 | 9 | 299 | 0.0 | 1.6 | 0.00 | 0.00 | 0.00 | 93 | 1015.3 |
| 20260506215507 | 9 | 298 | 0.0 | 1.6 | 0.00 | 0.00 | 0.00 | 93 | 1015.3 |
| 20260506215010 | 9 | 298 | 0.0 | 1.6 | 0.00 | 0.00 | 0.00 | 92 | 1015.4 |
| 20260506214521 | 9 | 299 | 0.0 | 1.6 | 0.00 | 0.00 | 0.00 | 92 | 1015.4 |
| 20260506214008 | 9 | 299 | 0.0 | 1.6 | 0.00 | 0.00 | 0.00 | 92 | 1015.3 |
| 20260506213511 | 9 | 299 | 0.0 | 3.2 | 0.00 | 0.00 | 0.00 | 92 | 1015.4 |
| 20260506213021 | 9 | 299 | 0.0 | 3.2 | 0.00 | 0.00 | 0.00 | 92 | 1015.3 |
| 20260506212510 | 9 | 299 | 0.0 | 3.2 | 0.00 | 0.00 | 0.00 | 92 | 1015.3 |
| 20260506212008 | 9 | 299 | 1.6 | 3.2 | 0.00 | 0.00 | 0.00 | 91 | 1015.3 |
| 20260506211518 | 9 | 298 | 0.0 | 1.6 | 0.00 | 0.00 | 0.00 | 91 | 1015.3 |
| 20260506211005 | 9 | 299 | 0.0 | 1.6 | 0.00 | 0.00 | 0.00 | 91 | 1015.3 |
| 20260506210506 | 9 | 299 | 0.0 | 0.0 | 0.00 | 0.00 | 0.00 | 91 | 1015.3 |
| 20260506210027 | 9 | 299 | 0.0 | 0.0 | 0.00 | 0.00 | 0.00 | 90 | 1015.3 |
| 20260506205506 | 10 | 299 | 0.0 | 0.0 | 0.00 | 0.00 | 0.00 | 90 | 1015.3 |
| 20260506205006 | 10 | 299 | 0.0 | 1.6 | 0.00 | 0.00 | 0.00 | 90 | 1015.3 |
| 20260506204507 | 10 | 299 | 0.0 | 1.6 | 0.00 | 0.00 | 0.00 | 90 | 1015.3 |
| 20260506204009 | 10 | 299 | 0.0 | 1.6 | 0.00 | 0.00 | 0.00 | 90 | 1015.2 |
| 20260506203505 | 10 | 298 | 0.0 | 1.6 | 0.00 | 0.00 | 0.00 | 90 | 1015.2 |
| 20260506203007 | 10 | 298 | 0.0 | 0.0 | 0.00 | 0.00 | 0.00 | 89 | 1015.1 |
| 20260506202502 | 10 | 299 | 0.0 | 0.0 | 0.00 | 0.00 | 0.00 | 89 | 1015.1 |
| 20260506202007 | 10 | 298 | 0.0 | 1.6 | 0.00 | 0.00 | 0.00 | 88 | 1015.1 |
| 20260506201504 | 10 | 299 | 0.0 | 1.6 | 0.00 | 0.00 | 0.00 | 88 | 1015.0 |
| 20260506201004 | 10 | 298 | 0.0 | 1.6 | 0.00 | 0.00 | 0.00 | 88 | 1015.0 |
| 20260506200507 | 10 | 298 | 0.0 | 0.0 | 0.00 | 0.00 | 0.00 | 88 | 1015.0 |
| 20260506200018 | 10 | 299 | 0.0 | 0.0 | 0.00 | 0.00 | 0.00 | 86 | 1015.0 |
| 20260506195503 | 10 | 299 | 0.0 | 1.6 | 0.00 | 0.00 | 0.00 | 86 | 1014.9 |
| 20260506195006 | 11 | 298 | 0.0 | 1.6 | 0.00 | 0.00 | 0.00 | 85 | 1014.9 |
| 20260506194503 | 11 | 299 | 0.0 | 0.0 | 0.00 | 0.00 | 0.00 | 85 | 1014.9 |
| 20260506194003 | 11 | 298 | 0.0 | 1.6 | 0.00 | 0.00 | 0.00 | 85 | 1014.8 |
| 20260506193503 | 11 | 298 | 0.0 | 3.2 | 0.00 | 0.00 | 0.00 | 84 | 1014.6 |
| 20260506193006 | 11 | 299 | 0.0 | 4.8 | 0.00 | 0.00 | 0.00 | 83 | 1014.6 |
| 20260506192503 | 11 | 299 | 0.0 | 4.8 | 0.00 | 0.00 | 0.00 | 83 | 1014.6 |
| 20260506192003 | 11 | 298 | 1.6 | 8.0 | 0.00 | 0.00 | 0.00 | 82 | 1014.5 |
| 20260506191517 | 12 | 298 | 3.2 | 8.0 | 0.00 | 0.00 | 0.00 | 82 | 1014.4 |
| 20260506191007 | 12 | 295 | 1.6 | 8.0 | 0.00 | 0.00 | 0.00 | 81 | 1014.4 |
| 20260506190508 | 12 | 302 | 1.6 | 9.7 | 0.00 | 0.00 | 0.00 | 80 | 1014.3 |
| 20260506190008 | 12 | 304 | 1.6 | 11.3 | 0.00 | 0.00 | 0.00 | 80 | 1014.3 |
| 20260506185504 | 12 | 264 | 3.2 | 16.1 | 0.00 | 0.00 | 0.00 | 79 | 1014.3 |
| 20260506185009 | 12 | 273 | 4.8 | 16.1 | 0.00 | 0.00 | 0.00 | 79 | 1014.2 |
| 20260506184507 | 12 | 301 | 4.8 | 14.5 | 0.00 | 0.00 | 0.00 | 78 | 1014.2 |
| 20260506184003 | 13 | 291 | 8.0 | 14.5 | 0.00 | 0.00 | 0.00 | 78 | 1014.2 |
| 20260506183508 | 13 | 288 | 1.6 | 16.1 | 0.00 | 0.00 | 0.00 | 77 | 1014.1 |
| 20260506183005 | 13 | 294 | 6.4 | 16.1 | 0.00 | 0.00 | 0.00 | 76 | 1014.1 |
| 20260506182503 | 13 | 274 | 8.0 | 16.1 | 0.00 | 0.00 | 0.00 | 75 | 1014.0 |
| 20260506182005 | 13 | 281 | 6.4 | 16.1 | 0.00 | 0.00 | 0.00 | 75 | 1014.0 |
| 20260506181512 | 13 | 306 | 6.4 | 16.1 | 0.00 | 0.00 | 0.00 | 75 | 1014.0 |
| 20260506181004 | 14 | 282 | 3.2 | 19.3 | 0.00 | 0.00 | 0.00 | 74 | 1013.9 |
| 20260506180506 | 14 | 268 | 3.2 | 19.3 | 0.00 | 0.00 | 0.00 | 73 | 1013.9 |
| 20260506180016 | 14 | 267 | 6.4 | 14.5 | 0.00 | 0.00 | 0.00 | 72 | 1013.8 |
| 20260506175507 | 14 | 302 | 6.4 | 20.9 | 0.00 | 0.00 | 0.00 | 72 | 1013.8 |
| 20260506175003 | 14 | 312 | 9.7 | 20.9 | 0.00 | 0.00 | 0.00 | 71 | 1013.8 |
| 20260506174518 | 14 | 281 | 11.3 | 20.9 | 0.00 | 0.00 | 0.00 | 71 | 1013.8 |
| 20260506174007 | 15 | 246 | 9.7 | 22.5 | 0.00 | 0.00 | 0.00 | 70 | 1013.8 |
| 20260506173508 | 15 | 280 | 6.4 | 22.5 | 0.00 | 0.00 | 0.00 | 70 | 1013.7 |
| 20260506173016 | 14 | 302 | 12.9 | 20.9 | 0.00 | 0.00 | 0.00 | 71 | 1013.8 |
| 20260506172507 | 13 | 316 | 11.3 | 24.1 | 0.00 | 0.00 | 0.00 | 76 | 1013.7 |
| 20260506172007 | 13 | 268 | 8.0 | 24.1 | 0.00 | 0.00 | 0.00 | 76 | 1013.8 |
| 20260506171514 | 13 | 298 | 11.3 | 20.9 | 0.00 | 0.00 | 0.00 | 76 | 1013.7 |
| 20260506171003 | 13 | 283 | 8.0 | 20.9 | 0.00 | 0.00 | 0.00 | 74 | 1013.7 |
| 20260506170508 | 13 | 298 | 8.0 | 20.9 | 0.00 | 0.00 | 0.00 | 75 | 1013.6 |
| 20260506170012 | 13 | 304 | 8.0 | 20.9 | 0.00 | 0.00 | 0.00 | 75 | 1013.5 |
| 20260506165507 | 14 | 311 | 11.3 | 20.9 | 0.00 | 0.00 | 0.00 | 74 | 1013.6 |
| 20260506165007 | 14 | 265 | 11.3 | 19.3 | 0.00 | 0.00 | 0.00 | 74 | 1013.5 |
| 20260506164518 | 14 | 266 | 8.0 | 24.1 | 0.00 | 0.00 | 0.00 | 75 | 1013.5 |
| 20260506164007 | 13 | 297 | 9.7 | 24.1 | 0.00 | 0.00 | 0.00 | 75 | 1013.5 |
| 20260506163507 | 13 | 277 | 11.3 | 22.5 | 0.00 | 0.00 | 0.00 | 74 | 1013.5 |
| 20260506163039 | 13 | 298 | 8.0 | 24.1 | 0.00 | 0.00 | 0.00 | 75 | 1013.5 |
| 20260506162507 | 13 | 319 | 9.7 | 25.7 | 0.00 | 0.00 | 0.00 | 75 | 1013.5 |
| 20260506162010 | 13 | 289 | 9.7 | 25.7 | 0.00 | 0.00 | 0.00 | 76 | 1013.4 |
| 20260506161523 | 14 | 305 | 9.7 | 25.7 | 0.00 | 0.00 | 0.00 | 75 | 1013.3 |
| 20260506161007 | 14 | 275 | 11.3 | 25.7 | 0.00 | 0.00 | 0.00 | 75 | 1013.4 |
| 20260506160509 | 13 | 279 | 14.5 | 25.7 | 0.00 | 0.00 | 0.00 | 76 | 1013.4 |
| 20260506160012 | 13 | 293 | 12.9 | 24.1 | 0.00 | 0.00 | 0.00 | 77 | 1013.4 |
| 20260506155507 | 13 | 265 | 12.9 | 24.1 | 0.00 | 0.00 | 0.00 | 76 | 1013.4 |
| 20260506155005 | 13 | 292 | 9.7 | 24.1 | 0.00 | 0.00 | 0.00 | 77 | 1013.3 |
| 20260506154527 | 14 | 274 | 4.8 | 22.5 | 0.00 | 0.00 | 0.00 | 77 | 1013.3 |
| 20260506154007 | 14 | 277 | 6.4 | 22.5 | 0.00 | 0.00 | 0.00 | 77 | 1013.3 |
| 20260506153505 | 13 | 258 | 6.4 | 22.5 | 0.00 | 0.00 | 0.00 | 78 | 1013.3 |
| 20260506153027 | 13 | 314 | 9.7 | 19.3 | 0.00 | 0.00 | 0.00 | 77 | 1013.3 |
| 20260506152510 | 13 | 279 | 6.4 | 19.3 | 0.00 | 0.00 | 0.00 | 81 | 1013.3 |
| 20260506152011 | 13 | 316 | 6.4 | 17.7 | 0.00 | 0.00 | 0.00 | 84 | 1013.3 |
| 20260506151533 | 13 | 292 | 6.4 | 16.1 | 0.00 | 0.00 | 0.00 | 86 | 1013.3 |
| 20260506151003 | 13 | 319 | 6.4 | 20.9 | 0.00 | 0.00 | 0.00 | 86 | 1013.4 |
| 20260506150509 | 13 | 319 | 8.0 | 25.7 | 0.00 | 0.00 | 0.00 | 83 | 1013.4 |
| 20260506150024 | 13 | 10 | 4.8 | 25.7 | 0.00 | 0.00 | 0.00 | 81 | 1013.4 |
| 20260506145507 | 14 | 333 | 9.7 | 24.1 | 0.00 | 0.00 | 0.00 | 78 | 1013.4 |
| 20260506145007 | 15 | 270 | 9.7 | 22.5 | 0.00 | 0.00 | 0.00 | 72 | 1013.4 |
| 20260506144515 | 15 | 242 | 12.9 | 24.1 | 0.00 | 0.00 | 0.00 | 71 | 1013.3 |
| 20260506144009 | 15 | 283 | 12.9 | 24.1 | 0.00 | 0.00 | 0.00 | 71 | 1013.3 |
| 20260506143507 | 15 | 281 | 12.9 | 22.5 | 0.00 | 0.00 | 0.00 | 73 | 1013.3 |
| 20260506143018 | 14 | 291 | 14.5 | 24.1 | 0.00 | 0.00 | 0.00 | 76 | 1013.3 |
| 20260506142506 | 14 | 296 | 12.9 | 24.1 | 0.00 | 0.00 | 0.00 | 75 | 1013.4 |
| 20260506142006 | 13 | 252 | 12.9 | 27.4 | 0.00 | 0.00 | 0.00 | 77 | 1013.4 |
| 20260506141518 | 14 | 260 | 11.3 | 27.4 | 0.00 | 0.00 | 0.00 | 77 | 1013.4 |
| 20260506141009 | 14 | 305 | 11.3 | 25.7 | 0.00 | 0.00 | 0.00 | 77 | 1013.4 |
| 20260506140508 | 13 | 292 | 11.3 | 25.7 | 0.00 | 0.00 | 0.00 | 79 | 1013.6 |
| 20260506140029 | 13 | 302 | 12.9 | 25.7 | 0.00 | 0.00 | 0.00 | 78 | 1013.5 |
| 20260506135514 | 13 | 298 | 14.5 | 24.1 | 0.00 | 0.00 | 0.00 | 76 | 1013.5 |
| 20260506135009 | 13 | 303 | 9.7 | 24.1 | 0.00 | 0.00 | 0.00 | 77 | 1013.5 |
| 20260506134528 | 13 | 307 | 11.3 | 24.1 | 0.00 | 0.00 | 0.00 | 77 | 1013.5 |
| 20260506134009 | 13 | 250 | 14.5 | 29.0 | 0.00 | 0.00 | 0.00 | 76 | 1013.5 |
| 20260506133509 | 13 | 295 | 12.9 | 33.8 | 0.00 | 0.00 | 0.00 | 77 | 1013.4 |
| 20260506133002 | 13 | 291 | 14.5 | 33.8 | 0.00 | 0.00 | 0.00 | 74 | 1013.4 |
| 20260506132506 | 13 | 295 | 12.9 | 30.6 | 0.00 | 0.03 | 0.00 | 74 | 1013.3 |
| 20260506132003 | 14 | 308 | 12.9 | 30.6 | 0.00 | 0.05 | 0.00 | 73 | 1013.3 |
| 20260506131502 | 14 | 296 | 11.3 | 25.7 | 0.00 | 0.05 | 0.00 | 74 | 1013.2 |
| 20260506131005 | 14 | 254 | 12.9 | 25.7 | 0.00 | 0.05 | 0.00 | 74 | 1013.1 |
| 20260506130505 | 14 | 245 | 11.3 | 27.4 | 0.00 | 0.05 | 0.00 | 74 | 1013.1 |
| 20260506130004 | 14 | 325 | 9.7 | 27.4 | 0.00 | 0.05 | 0.00 | 74 | 1013.1 |
| 20260506125503 | 14 | 288 | 9.7 | 24.1 | 0.00 | 0.05 | 0.00 | 76 | 1013.1 |
| 20260506125004 | 13 | 306 | 9.7 | 24.1 | 0.00 | 0.05 | 0.00 | 75 | 1013.1 |
| 20260506124503 | 13 | 261 | 12.9 | 27.4 | 0.00 | 0.05 | 0.00 | 75 | 1013.1 |
| 20260506124006 | 13 | 311 | 11.3 | 27.4 | 0.00 | 0.05 | 0.00 | 75 | 1013.2 |
| 20260506123505 | 14 | 287 | 11.3 | 27.4 | 0.00 | 0.05 | 0.00 | 73 | 1013.1 |
| 20260506123007 | 14 | 288 | 8.0 | 27.4 | 0.00 | 0.05 | 0.00 | 75 | 1013.1 |
| 20260506122503 | 13 | 266 | 14.5 | 24.1 | 0.00 | 0.05 | 0.00 | 74 | 1013.2 |
| 20260506122002 | 13 | 244 | 14.5 | 25.7 | 0.00 | 0.05 | 0.00 | 75 | 1013.1 |
| 20260506121502 | 13 | 294 | 14.5 | 25.7 | 0.00 | 0.05 | 0.00 | 74 | 1013.1 |
| 20260506121003 | 13 | 272 | 12.9 | 24.1 | 0.00 | 0.05 | 0.00 | 74 | 1013.1 |
| 20260506120504 | 13 | 307 | 11.3 | 22.5 | 0.00 | 0.05 | 0.00 | 73 | 1013.1 |
| 20260506120011 | 13 | 298 | 9.7 | 29.0 | 0.00 | 0.05 | 0.00 | 75 | 1013.1 |
| 20260506115503 | 13 | 273 | 14.5 | 29.0 | 0.00 | 0.05 | 0.00 | 74 | 1013.1 |
| 20260506115003 | 14 | 280 | 17.7 | 25.7 | 0.00 | 0.05 | 0.00 | 74 | 1013.1 |
| 20260506114504 | 14 | 275 | 11.3 | 22.5 | 0.00 | 0.08 | 0.00 | 74 | 1013.1 |